THORAD AGENA D DEB

Satellite information

Favourite Embed

Satellite Type and Status

DEBRISIN ORBIT

Key statistics

Satellite THORAD AGENA D DEB at a glance.

Uptime

20429

Days in orbit

Revolutions

≈ 14.2

Per day

Orbit

LEO

Low Earth Orbit

Inclination

70.1

Latest

Satellite identification and parameters

Extended collection of information and parameters for THORAD AGENA D DEB.

Object identification

Identified? True

Debris? True

Object name: THORAD AGENA D DEB

International designator: 1969-082CY

Object number (NORAD): 4249

Object ID (CCSDS): 4249

Country: UNITED STATES OF AMERICA (US)

Current information (Y/N): Y

RCS size: SMALL

Orbital parameters

Period: 101.205 minutes

Inclination: 70.0605 deg

SMA: 7193.867 km

Apoapsis: 859.395 km

Periapsis: 772.069 km

RAAN: 280.0998 deg

Eccentricy: 0.0060695

Argument of periapsis: 277.5337 deg

Mean anomaly: 81.8891 deg

Mean motion: 14.22850096 rev/day

Mean motion (dot): 0.00000911 rev/day2

B* drag term: 0.00042258375 1/REarth

Two-line elements (TLE)

Creation date: Sept. 4, 2025, 10:13 a.m.

Reference frame: TEME

Reference center: EARTH

Epoch: Sept. 4, 2025, 2:33 a.m. UTC

TLE line 0: 0 THORAD AGENA D DEB

TLE line 1: 1 04249U 69082CY 25247.10657238 .00000911 00000-0 42258-3 0 9991

TLE line 2: 2 04249 70.0605 280.0998 0060695 277.5337 81.8891 14.22850096881284

Live tracking on map

Real-time ground track for satellite THORAD AGENA D DEB.

In-orbit conjunctions

A list of the most updated potential collisions computed for object THORAD AGENA D DEB.

Target Orbit TCA Probability of collision Miss distance Type
DMSP 5D-2 F13 DEB SSO 2025-06-10 09:23:40 0.0001080683 303.0 (m) DEBRIS
DMSP 5D-2 F13 DEB SSO 2024-11-16 13:38:37 0.0001446657 633.0 (m) DEBRIS

Associated space launch

Poppy was the follow-on ELINT system, which succeeded the Grab ELINT satellite system.

THORAD AGENA D DEB was lifted into orbit during the mission ‘Thorad SLV-2G Agena D | Poppy 8A,B,C,D’, on board a Thorad SLV-2G Agena D space rocket.

The launch took place on Sept. 30, 1969, 1:40 p.m. from Space Launch Complex 1W.

For more information about the launch, click the button.

Launch to space Thorad SLV-2G Agena D | Poppy 8A,B,C,D
Thorad SLV-2G Agena D | Poppy 8A,B,C,D

Agency: N/A

Status: Launch Successful

Launch date: Sept. 30, 1969, 1:40 p.m. UTC

Rocket: Thorad SLV-2G Agena D

Launch pad: Space Launch Complex 1W

Location: Vandenberg SFB, CA, USA

...

Latest news about this satellite

There are no fresh news available about this satellite. Check back as we update our databases every day.


Newsletter sign-up

Weekly statistics, charts and insights to help you stay on top of the space industry.